RH
90 87 85 80 74 65 60 58 55 53 51 50 51 49 44 43 41 39 38 36 33 31 31 30 29 32 35 39 45 49 55 61 72 67 62 60 62 67 58 63 63 64 74
92 87 88 83 79 69 61 58 56 55 54 51 51 52 50 46 43 41 40 38 35 33 33 34 33 37 40 43 47 52 58 63 69 73 72 72 75 69 75 79 77 72 73
90 91 87 86 84 73 62 59 58 56 56 56 54 54 53 50 46 44 41 38 37 34 33 34 34 38 41 43 47 54 61 66 70 76 85 82 76 81 85 81 77 75 74
89 92 89 87 84 79 64 60 59 57 58 58 56 55 52 50 48 47 44 40 38 35 34 33 32 33 35 42 53 62 66 68 69 81 87 90 89 84 82 79 78 78 82
86 90 89 88 85 80 70 61 59 58 58 58 57 56 53 51 50 48 44 40 39 38 37 36 36 38 43 51 59 64 67 70 84 86 90 92 89 85 82 81 84 90 86
85 89 88 88 87 80 72 63 60 60 60 58 59 56 54 53 51 47 42 41 40 37 39 42 42 47 57 77 80 79 85 87 84 84 88 93 88 82 82 87 94 91 85
85 87 84 86 87 84 75 66 64 62 62 61 60 58 55 53 53 52 45 41 40 38 38 42 46 55 63 69 76 78 82 82 85 87 84 81 81 80 89 95 92 92 92
84 85 84 84 84 83 75 71 66 63 62 62 60 57 55 53 57 65 56 41 40 38 39 40 53 64 65 68 72 74 74 73 70 74 82 81 84 88 85 85 90 94 91
85 85 83 83 82 78 74 71 67 65 65 63 59 56 55 51 63 66 61 42 41 42 48 63 66 65 71 81 80 79 76 67 61 69 87 89 79 77 80 88 90 94 88
88 84 82 80 79 76 73 70 66 62 62 60 58 55 53 59 68 71 60 48 57 64 73 69 67 69 82 83 83 81 78 65 81 82 54 43 44 47 52 68 82 97 94
86 84 81 80 79 76 74 69 67 65 64 61 59 57 60 68 76 81 82 64 69 77 71 76 85 85 81 86 86 82 75 84 80 58 53 50 53 59 60 70 78 93 99
88 84 82 80 77 73 69 67 65 64 64 64 63 71 72 78 80 96 90 69 72 67 74 77 73 83 86 84 75 83 82 71 54 60 69 75 81 82 78 82 88 94 99
87 88 84 81 77 72 68 66 67 68 71 74 81 86 91 90 93 93 88 83 88 77 78 73 86 83 83 73 82 83 52 55 70 78 82 82 85 83 88 98 95 94 94
87 87 83 78 71 70 69 69 73 76 78 77 84 92 95 98 98 91 88 93 97 86 98 95 80 75 74 79 58 52 56 66 86 80 88 88 91 98 96 94 97 96 94
90 86 81 85 92 78 75 76 78 77 77 80 87 91 95 99 100 99 96 97 96 96 93 92 84 76 68 60 57 60 66 70 75 84 94 99 100 99 97 96 96 93 94
97 95 96 99 96 93 93 97 97 92 96 94 95 96 96 98 97 97 97 98 97 98 94 87 84 75 71 76 76 75 76 80 84 90 93 100 100 100 100 96 96 93 94
97 97 98 98 98 100 98 97 97 99 98 99 97 98 95 96 98 97 96 97 98 98 88 83 82 84 85 84 86 90 90 83 79 84 96 98 99 100 99 97 95 93 89
97 99 97 98 97 98 98 98 98 96 96 98 99 98 98 97 97 97 98 97 98 97 83 84 86 83 88 92 93 93 87 77 79 93 92 89 97 100 100 96 95 95 90
98 98 97 97 97 98 98 99 99 98 98 98 99 99 98 98 98 98 97 93 94 92 90 86 82 83 84 81 82 81 79 85 97 92 90 95 97 100 99 98 97 86 85
97 97 98 97 98 98 98 98 98 98 98 97 97 98 99 98 97 96 94 91 87 84 79 74 76 76 77 76 74 74 78 83 86 94 94 94 97 100 100 99 92 92 92
97 98 98 97 97 97 98 97 97 97 96 97 97 97 98 94 96 95 92 88 83 76 69 69 74 74 71 70 73 76 79 84 89 94 91 90 99 100 99 94 93 94 95
96 97 97 97 97 97 97 97 97 96 96 96 97 97 99 94 94 93 91 86 77 68 66 66 68 69 69 70 71 76 82 86 90 91 89 91 96 98 98 90 94 95 93
96 97 97 97 97 97 97 97 97 97 97 97 97 96 96 95 93 90 86 80 74 68 69 70 67 66 66 68 71 76 78 87 88 91 95 95 98 96 95 97 97 96 94
95 96 97 97 96 96 96 96 97 98 96 96 96 95 93 92 89 86 82 76 70 70 70 70 70 69 68 67 67 70 75 86 90 94 97 98 98 91 97 98 98 98 94
96 96 96 96 96 97 97 97 97 96 96 95 94 92 91 88 86 81 75 72 70 70 69 69 71 71 71 70 68 66 80 93 93 96 94 92 88 81 93 100 100 96 93
95 95 96 96 96 96 96 96 96 96 96 96 95 91 86 81 76 72 70 68 67 66 68 69 68 72 71 69 68 71 96 99 96 91 78 87 82 80 93 100 97 98 97
Wind_Speed
37 37 36 35 36 34 37 39 42 42 45 46 48 48 50 48 44 41 38 34 30 27 23 21 18 16 15 14 12 10 10 10 12 11 18 28 32 34 36 34 33 34 30
33 37 35 36 35 36 36 38 41 42 44 46 46 47 48 49 47 44 40 36 34 30 27 24 21 19 16 14 13 11 10 10 12 19 23 26 31 33 32 32 32 32 30
29 33 33 34 35 36 34 36 39 40 42 43 45 47 46 48 49 46 42 39 35 32 29 26 23 21 18 16 15 12 10 9 10 14 19 25 29 29 30 30 30 32 30
27 30 32 34 34 34 33 36 38 41 42 43 44 44 47 48 48 46 42 38 35 31 28 24 22 22 19 17 15 12 9 10 11 14 20 21 22 25 26 27 32 30 32
25 26 30 30 32 34 33 36 39 40 42 43 42 41 44 45 46 45 42 39 36 31 27 24 21 19 16 15 14 12 9 9 10 15 18 18 21 21 23 28 31 35 33
10 24 26 28 29 29 31 36 36 37 39 41 41 43 44 41 42 45 44 41 36 33 30 24 21 18 16 14 11 9 7 8 10 13 16 15 19 24 26 28 30 30 14
14 17 27 29 30 30 33 34 33 35 37 38 38 40 41 39 38 40 43 40 36 34 30 27 22 19 17 16 12 9 7 8 9 13 18 20 24 28 32 29 28 28 30
13 7 21 28 30 31 32 31 33 34 36 36 37 40 37 36 34 34 34 38 35 31 28 25 23 20 17 14 10 8 7 8 9 11 14 18 23 26 27 28 31 33 30
12 9 12 22 26 29 31 31 30 31 28 30 35 39 36 32 34 35 33 36 33 29 26 23 21 18 15 11 9 6 7 8 9 10 13 17 19 21 23 26 26 27 28
12 11 11 18 26 29 31 32 33 35 33 34 34 35 32 32 34 34 32 35 31 29 24 20 17 16 13 10 6 6 7 9 12 15 18 19 19 20 22 21 27 25 27
14 12 11 16 24 28 30 31 33 31 31 29 28 29 28 34 32 30 26 32 32 29 26 21 18 14 13 8 5 4 3 8 11 14 16 19 21 23 25 26 27 27 28
12 11 12 14 19 24 29 28 29 31 28 26 25 23 28 29 32 26 25 29 29 31 25 22 18 15 10 7 6 2 1 4 8 11 16 19 20 23 27 28 30 30 30
12 12 11 14 19 24 27 26 25 26 25 24 24 23 24 27 28 25 23 24 23 25 24 22 16 12 10 9 6 4 3 5 9 13 16 19 21 27 29 28 27 29 31
14 13 15 18 19 21 23 26 24 22 22 23 24 24 27 27 27 28 27 26 23 24 19 17 14 12 9 8 5 5 7 8 9 15 18 22 25 24 26 28 29 31 32
12 14 17 18 18 18 17 20 21 24 29 27 27 31 33 28 27 32 33 29 26 24 21 19 16 14 10 7 5 6 9 11 15 18 19 21 22 24 26 29 29 32 29
12 14 15 18 19 19 18 15 13 19 21 23 25 28 27 28 32 28 27 24 23 22 21 20 15 11 8 5 6 9 11 12 16 18 21 22 23 25 28 30 30 29 30
12 14 15 16 17 19 19 19 16 20 22 27 31 31 33 32 30 27 26 24 22 19 22 17 14 10 7 6 7 7 9 12 16 18 22 25 26 26 29 30 32 32 33
11 13 16 17 18 19 19 20 22 23 25 29 31 32 33 33 31 29 27 25 21 16 19 17 13 9 6 5 6 7 11 16 18 21 23 26 27 25 28 29 31 31 37
11 11 15 16 18 19 19 19 21 21 20 24 30 32 35 33 30 27 23 25 23 21 17 14 10 7 5 5 6 8 12 16 17 20 23 26 29 26 28 30 31 38 42
9 12 13 15 16 19 20 22 22 22 24 24 27 27 30 31 27 23 22 23 22 19 15 12 9 6 5 6 9 11 13 16 18 20 24 28 30 29 29 30 32 36 36
10 13 17 20 19 19 21 23 24 24 24 23 24 28 29 30 25 23 21 19 18 15 13 11 8 7 7 9 10 12 15 17 18 20 27 32 33 29 29 30 34 35 35
19 19 22 23 25 26 26 27 28 27 27 26 24 24 24 28 25 22 20 18 16 14 11 8 7 7 7 9 11 14 16 17 19 23 27 32 33 29 26 33 35 33 35
19 22 24 23 25 28 28 27 28 27 26 26 25 24 24 23 23 20 18 15 13 11 9 7 7 6 6 8 10 15 16 17 20 24 29 33 24 27 30 32 33 33 34
22 22 23 23 25 26 27 27 28 27 27 26 25 23 24 23 20 17 15 13 11 9 7 6 6 7 9 11 13 17 15 16 21 26 30 27 25 30 31 32 34 30 37
21 23 23 21 21 23 25 25 26 26 26 25 25 24 22 19 17 15 12 10 9 7 6 6 6 8 11 14 16 18 17 18 20 26 27 25 30 33 32 32 34 32 35
23 24 24 24 23 23 24 23 23 24 22 24 23 21 19 17 15 12 10 8 6 5 5 6 8 10 12 15 17 21 19 20 24 25 26 28 31 35 34 32 32 35 31
Wind_Direction
195 198 196 197 198 196 195 194 197 199 201 203 201 201 204 203 202 201 202 197 195 194 195 200 200 204 206 205 209 214 212 210 221 276 294 311 314 320 325 328 328 326 317
195 198 197 198 197 197 194 194 196 198 201 204 202 202 202 204 203 203 200 198 197 194 196 197 200 200 206 214 215 220 228 235 244 266 294 307 312 321 320 321 319 316 309
195 198 200 199 198 197 194 193 193 196 198 201 200 200 201 204 206 206 204 201 199 199 199 199 199 204 205 213 222 226 235 248 258 281 297 308 316 321 318 315 313 311 307
192 195 201 201 199 195 192 191 190 194 194 198 199 200 203 206 207 206 203 201 201 200 201 204 203 208 210 211 218 226 234 258 280 295 304 306 313 315 313 314 314 313 309
201 196 200 202 200 194 191 189 190 191 194 198 196 199 203 205 205 205 203 202 199 197 199 202 206 210 211 215 218 225 240 266 292 303 302 306 310 315 316 317 311 312 311
282 196 195 193 194 193 188 185 187 187 188 193 194 198 201 201 201 206 205 200 197 195 194 196 199 201 208 209 215 231 251 278 296 305 305 298 304 308 314 315 312 318 320
339 211 193 189 188 189 187 183 184 182 182 188 191 196 200 200 196 198 203 199 194 194 193 192 192 201 203 212 204 219 234 253 279 294 298 302 307 312 317 311 309 306 301
318 256 198 191 189 188 180 180 180 179 180 183 189 200 200 200 187 180 188 195 194 193 194 193 192 193 200 206 216 228 255 284 298 301 299 303 306 310 307 308 307 303 301
310 277 211 193 186 183 175 173 172 170 172 178 190 199 197 190 180 175 180 187 188 187 188 186 188 191 192 194 217 248 284 303 313 315 308 307 308 310 311 315 313 314 308
306 281 233 200 188 182 179 174 175 179 176 186 193 200 195 178 176 172 183 178 173 176 178 179 185 189 187 185 223 263 294 323 332 323 319 320 325 327 327 322 315 306 310
301 276 237 208 191 187 181 179 175 169 173 177 177 185 176 175 171 172 171 173 169 167 170 172 177 179 176 183 207 249 318 325 307 315 324 331 334 332 329 325 320 300 297
276 251 229 206 192 177 175 168 165 164 158 157 158 160 170 168 168 171 171 176 173 168 167 173 170 171 177 172 167 128 0 300 322 339 339 327 318 317 318 318 317 306 293
261 229 212 200 189 184 175 156 152 157 152 153 155 155 157 162 167 169 169 162 160 160 167 166 164 168 161 151 125 86 23 9 1 344 325 319 319 320 320 309 307 303 298
243 216 197 185 178 176 170 166 158 156 157 160 159 160 161 160 159 162 161 152 146 158 154 157 165 156 145 139 124 74 36 16 349 334 324 324 325 316 312 313 310 313 311
207 187 179 169 164 159 162 166 167 174 173 170 172 167 164 162 163 157 152 152 160 160 157 156 156 153 143 125 97 52 20 6 348 340 329 324 319 318 316 317 316 314 312
180 169 162 155 154 152 150 156 176 178 176 176 170 165 162 154 149 157 165 159 156 157 159 155 152 144 122 90 55 28 7 353 345 340 335 324 318 318 319 319 317 316 313
186 174 164 155 153 148 152 152 153 167 169 164 159 156 150 157 161 156 154 151 150 155 152 152 139 128 113 85 50 22 352 341 338 343 334 326 327 322 322 320 319 318 317
206 187 165 161 158 157 159 161 159 161 161 160 164 163 162 155 152 146 141 139 135 148 149 143 134 130 114 66 31 359 345 343 345 335 332 338 335 320 320 319 320 315 322
201 179 166 165 163 161 162 156 148 147 147 143 143 145 147 138 133 132 145 147 143 141 140 133 128 124 101 59 19 354 355 344 327 328 336 338 337 323 319 318 317 323 321
169 168 162 156 155 141 137 137 139 131 127 126 124 129 130 128 121 130 149 147 142 138 138 131 127 111 79 43 19 4 348 340 338 337 337 339 334 324 317 316 325 321 320
144 137 123 116 109 110 109 105 107 110 110 105 103 119 128 126 123 135 141 137 133 131 128 124 116 97 66 34 12 357 346 338 338 338 340 339 332 320 320 329 321 319 317
105 106 108 107 107 105 105 108 110 108 107 110 112 116 116 129 133 136 134 126 124 122 121 117 101 80 53 23 5 351 342 340 342 341 338 336 333 328 330 329 320 319 320
99 103 104 107 111 113 108 108 108 107 106 107 111 115 122 128 131 133 127 125 125 120 113 101 85 62 40 15 0 348 342 343 342 338 331 329 323 334 330 325 319 320 325
103 98 99 104 110 110 110 110 111 113 113 114 119 125 129 131 130 126 122 124 125 114 101 80 58 31 15 3 357 347 344 346 344 337 326 324 330 335 330 324 320 319 328
98 98 97 100 105 106 108 110 111 115 119 125 128 131 133 133 132 126 122 123 117 106 83 60 37 17 3 357 351 345 345 342 334 330 333 336 339 340 333 324 321 327 327
102 102 102 104 102 104 107 109 111 118 124 132 136 137 138 135 131 129 126 124 113 86 56 34 20 7 355 350 347 346 337 337 333 333 334 337 339 339 336 323 327 324 324